Theta_e
333 335 338 339 341 341 346 348 351 355 362 364 367 366 368 368 366 366 363 364 361 355 353 354 356 357 355 357 353 354 351 350 346
328 335 338 339 341 343 345 348 351 354 362 364 367 368 367 369 367 365 362 364 363 361 357 363 355 356 355 353 353 352 350 343 344
328 332 336 339 339 342 345 349 352 355 359 364 367 368 368 367 368 366 364 365 364 358 365 362 358 356 355 352 351 351 348 346 349
328 328 334 338 339 341 344 347 350 353 356 363 366 367 368 368 367 368 365 363 363 361 362 361 357 356 352 350 350 351 348 346 348
329 330 331 336 340 341 342 343 347 350 354 356 363 366 367 367 368 368 366 362 365 365 361 364 360 355 352 351 348 349 346 344 344
330 331 336 337 337 340 342 343 345 348 351 354 361 364 364 366 366 365 364 365 362 364 363 359 354 355 352 350 348 346 346 346 345
331 339 341 339 343 339 342 344 346 347 349 353 356 362 362 363 365 365 364 364 364 363 364 359 356 354 352 351 349 347 345 346 345
332 336 337 344 339 347 346 346 347 348 350 352 355 358 360 362 366 366 366 364 364 363 365 361 357 353 352 352 348 346 343 344 345
329 332 335 342 345 347 354 351 350 349 351 352 355 355 358 362 364 367 365 364 364 364 364 362 358 353 352 350 346 334 333 342 344
330 330 332 334 344 347 350 356 355 351 352 357 356 359 359 361 363 365 365 365 363 363 362 360 357 352 351 349 347 328 329 334 344
329 333 333 338 333 344 351 351 354 360 356 358 360 359 362 364 365 365 365 364 363 361 363 360 354 352 350 347 345 325 325 331 340
328 331 337 337 334 332 348 349 356 359 360 358 359 359 366 364 367 367 365 364 362 362 360 357 352 348 346 344 341 323 324 328 334
326 328 331 337 334 333 339 352 354 359 358 360 358 361 362 368 370 367 366 365 363 363 358 353 353 349 347 336 339 321 320 326 337
327 331 329 335 350 349 353 355 356 358 359 359 362 365 366 369 368 368 368 364 361 358 354 351 349 346 342 340 337 336 318 318 337
338 342 337 342 352 363 361 360 364 360 360 365 368 366 366 367 368 364 362 359 354 354 350 346 345 341 339 340 342 328 316 316 320
337 340 346 345 354 362 365 371 365 361 366 366 365 363 363 364 364 362 359 354 349 346 346 340 338 337 336 337 347 345 315 313 315
341 348 349 353 353 354 357 364 364 365 363 365 363 363 361 358 351 349 348 344 342 341 340 339 338 338 340 344 343 337 331 328 324
344 347 349 353 353 354 359 363 362 364 363 362 358 353 351 350 347 345 333 320 325 340 324 326 341 345 343 339 338 337 328 329 333
341 341 345 344 343 346 351 353 354 358 360 355 350 345 344 342 343 339 332 326 319 301 302 300 300 305 325 321 312 304 302 300 301
330 340 345 346 348 350 351 352 353 356 356 354 350 347 344 341 340 340 339 336 331 320 310 300 298 299 305 306 302 299 298 298 300
Wind_Speed
25 23 19 20 22 19 22 23 21 20 21 20 20 19 16 15 14 8 8 8 5 6 6 9 14 10 10 8 8 6 8 8 7
13 25 23 22 22 21 19 22 22 21 20 21 20 20 16 15 14 14 10 8 8 6 6 3 14 13 11 9 11 9 8 6 7
15 19 21 21 19 21 19 19 19 20 18 21 21 20 18 16 16 16 13 10 10 10 6 6 13 14 12 11 8 9 6 5 5
21 15 17 20 21 20 19 18 19 19 20 19 20 20 18 17 16 17 16 13 12 13 10 8 13 13 13 12 11 9 7 7 6
15 13 15 17 21 21 21 21 21 21 20 20 20 19 18 19 17 17 17 16 14 13 13 9 10 13 13 13 12 10 10 10 7
17 16 10 10 18 21 22 21 20 22 21 22 20 19 19 19 19 18 19 18 17 15 14 13 13 14 14 14 14 13 12 11 9
7 5 6 7 5 17 23 22 21 22 23 22 21 20 20 20 20 20 19 17 17 16 15 14 14 13 14 14 14 13 12 11 9
6 6 9 8 6 4 17 19 20 20 21 21 21 20 21 21 19 18 16 16 16 16 15 15 14 15 14 13 12 11 12 12 12
12 11 8 11 12 9 6 15 20 21 19 21 18 20 21 19 18 17 18 16 15 15 15 15 14 15 14 16 11 12 16 13 11
13 16 12 12 13 12 10 9 17 20 20 17 19 17 18 18 18 18 18 16 15 15 15 14 14 14 12 13 12 12 13 15 8
9 9 12 8 8 12 12 12 17 15 18 17 17 16 17 17 17 17 16 16 15 14 12 13 11 10 10 10 9 12 11 8 7
13 15 11 10 11 14 13 14 13 15 16 18 16 17 14 16 16 16 16 15 15 12 10 10 9 9 11 11 9 12 12 10 8
15 15 11 9 12 12 13 15 17 17 16 16 18 16 16 13 13 15 15 13 11 9 8 8 8 9 9 9 10 14 15 12 7
13 12 14 11 3 4 11 15 16 17 16 16 14 12 13 12 13 13 12 11 9 10 8 7 7 7 6 7 9 8 16 17 10
5 8 7 5 4 1 9 12 13 16 15 12 12 12 13 12 12 10 9 10 7 9 7 6 6 5 4 4 7 8 12 15 15
3 4 7 4 5 10 7 7 11 13 10 12 12 13 13 12 11 8 10 9 10 8 7 6 5 5 5 6 5 4 8 8 5
5 7 11 10 12 14 10 9 10 11 12 11 12 13 14 13 12 11 11 9 6 6 6 5 5 6 5 3 3 6 6 5 5
10 10 12 12 12 11 11 12 12 11 13 14 14 11 12 12 10 10 10 8 3 6 5 1 4 4 5 6 7 8 10 7 5
11 13 13 11 12 12 10 11 11 11 11 14 13 12 9 8 8 9 9 7 7 17 10 7 11 5 3 4 8 13 13 12 10
10 14 12 12 13 11 10 10 10 9 10 12 14 12 13 9 8 7 9 10 8 8 7 13 14 11 9 10 13 14 14 11 10
Wind_Direction
190 186 187 185 188 190 183 186 183 184 177 183 184 188 196 195 207 211 211 202 201 190 200 180 165 166 163 172 178 198 161 162 180
226 176 184 184 184 187 185 182 185 184 173 181 185 186 192 194 196 206 206 200 210 194 218 158 163 167 167 185 182 192 174 214 183
231 186 184 180 186 184 184 181 181 181 178 180 183 187 189 196 194 200 204 199 201 202 203 184 169 173 174 180 194 188 165 217 208
225 223 184 181 182 181 178 177 178 184 183 178 184 189 190 193 198 197 202 205 204 190 200 191 169 175 177 183 190 188 177 222 213
216 224 219 192 180 175 175 179 179 183 185 189 188 188 190 195 195 198 198 209 202 199 192 179 172 179 185 187 188 181 185 210 212
210 221 208 195 182 173 175 181 180 184 187 190 189 190 192 194 198 199 203 201 207 198 195 191 188 184 191 190 190 184 192 205 219
210 170 204 157 156 179 185 182 183 184 186 189 191 189 195 200 198 202 203 200 201 205 197 195 193 195 197 195 191 192 193 204 211
233 232 159 147 185 211 183 181 185 187 184 185 188 191 196 200 201 202 199 201 201 203 195 199 196 197 199 197 193 189 191 204 211
207 210 216 176 176 196 219 185 182 186 187 185 186 190 196 196 195 196 199 199 200 201 200 199 194 201 197 196 199 197 190 198 202
220 203 201 221 175 188 203 200 178 183 190 180 188 187 193 193 191 193 193 192 196 196 203 190 200 200 200 203 204 184 198 193 205
283 233 214 206 235 183 191 208 176 173 183 191 184 191 188 189 189 187 184 190 194 198 194 197 197 195 198 201 195 164 169 191 221
250 247 268 223 228 257 184 192 178 174 179 190 192 185 186 185 179 175 179 188 192 190 197 192 187 191 195 200 190 172 177 178 209
252 253 253 228 221 237 223 183 178 170 182 186 195 189 184 170 163 170 179 181 178 176 167 186 197 192 186 191 206 184 182 182 212
238 262 235 254 215 242 181 174 172 168 178 184 185 175 172 160 164 168 166 165 167 165 168 184 191 173 163 189 210 200 196 190 210
306 327 263 167 172 63 146 164 151 162 171 158 158 157 161 155 153 158 153 151 138 148 151 143 149 142 169 194 212 206 193 195 209
89 15 19 349 127 100 95 94 136 146 144 141 148 147 146 143 136 126 126 141 131 127 132 154 155 172 189 218 180 152 152 173 181
92 77 73 63 83 82 84 90 104 115 126 133 139 134 122 112 105 104 102 109 125 126 143 156 181 194 197 191 175 147 152 154 166
66 75 71 67 69 77 78 83 94 99 111 108 104 102 104 106 112 108 89 64 37 133 63 146 209 184 175 193 169 169 173 158 168
50 68 72 79 78 83 93 93 104 104 104 112 116 116 108 110 119 126 121 119 93 44 50 58 50 27 111 49 90 118 114 111 111
45 53 72 77 87 89 101 112 113 119 121 130 139 137 125 137 146 146 153 149 134 124 58 61 54 53 82 97 136 124 129 128 107